Wind_Speed
25 26 27 28 31 21 15 18 15 13 12 10 8 7 7 6 6 6 6 7 7 10 3 4 8 12 7 4 7 6 1 5 10 12 7 6 8 4 5 14 4 2 14 29 39
26 26 28 29 31 25 15 17 13 12 11 11 10 6 4 5 4 10 11 10 12 6 7 8 3 2 3 4 3 5 3 6 6 4 3 6 7 12 7 8 4 16 21 33 34
27 27 28 30 31 28 16 17 12 12 11 9 9 5 2 5 1 6 1 16 11 8 7 8 9 2 4 1 4 4 7 8 3 4 3 3 7 5 16 8 19 25 26 24 29
28 29 29 30 31 29 18 17 13 12 11 8 6 6 2 1 3 2 5 18 12 9 7 5 3 2 3 4 4 4 8 3 4 2 3 3 2 7 10 10 21 29 29 24 23
29 29 30 31 30 28 22 18 13 11 11 7 2 7 3 1 6 4 11 15 13 11 9 4 1 1 3 4 6 4 3 1 1 5 6 7 4 4 6 14 19 23 24 23 19
29 30 30 32 31 29 28 18 9 9 9 6 3 9 2 2 4 8 12 15 13 15 8 7 6 6 6 4 3 6 7 4 2 4 5 7 2 11 6 19 21 22 21 19 18
31 31 31 33 32 30 28 16 6 6 7 6 9 4 0 8 4 9 10 13 15 17 4 12 9 3 2 9 3 6 6 8 6 4 4 9 4 6 16 20 22 21 18 18 13
31 32 32 33 32 29 28 13 5 3 4 5 3 2 5 1 10 8 9 9 13 14 16 14 15 6 3 3 9 5 4 2 8 7 3 9 3 7 11 18 14 17 16 13 10
32 33 33 33 33 30 29 11 4 1 2 1 2 1 7 4 12 9 11 6 15 18 15 17 2 1 6 3 6 4 5 6 6 9 7 4 7 4 8 16 15 18 12 9 2
32 33 34 32 31 33 25 8 2 1 2 1 3 4 5 5 9 16 17 18 6 5 5 4 4 2 3 4 3 5 4 1 6 5 6 6 8 5 10 17 13 13 15 15 14
33 34 34 32 27 32 16 1 3 1 3 8 4 3 1 6 11 11 15 5 1 3 6 1 4 6 10 9 9 7 2 3 3 2 5 8 12 11 8 14 13 11 14 14 16
33 35 34 32 29 18 8 1 4 5 7 11 13 8 19 11 5 7 15 4 1 6 2 5 7 15 8 9 7 4 5 6 3 1 3 7 5 6 11 12 16 16 12 13 10
33 35 35 30 21 2 15 8 11 6 1 8 6 6 6 8 6 8 12 6 3 3 6 7 11 5 9 3 5 4 7 3 1 4 5 5 4 7 2 5 10 11 12 9 13
34 35 34 34 3 18 7 18 19 5 4 7 5 6 5 5 4 11 19 6 3 9 6 7 8 6 1 3 6 4 3 5 5 5 2 4 4 4 8 8 9 10 11 10 10
35 35 31 23 16 6 8 20 22 3 2 3 4 6 9 9 3 3 20 3 7 8 3 7 2 4 6 3 4 3 2 3 2 4 4 2 3 5 7 7 12 11 11 10 11
37 34 32 9 11 13 14 22 5 5 5 3 7 7 7 3 3 3 5 1 2 4 3 7 4 6 6 3 4 0 5 8 6 4 3 3 5 4 12 17 13 11 13 13 10
39 31 26 16 6 7 16 4 4 3 4 5 6 7 7 7 3 7 7 5 4 3 4 7 4 3 4 4 7 7 7 4 5 5 5 6 4 9 13 22 19 16 12 11 11
39 29 14 18 10 6 6 4 3 4 4 4 5 4 9 8 7 10 8 6 5 5 2 3 8 3 3 6 6 3 7 5 1 1 6 6 6 7 7 10 13 13 13 11 8
36 16 12 12 10 9 5 2 7 5 3 7 5 6 4 6 6 7 9 10 9 10 8 5 2 1 6 4 7 3 2 6 6 2 3 3 5 10 13 14 9 10 15 8 8
25 12 10 8 13 8 4 6 4 4 6 5 3 3 0 3 2 3 9 8 8 11 6 8 3 1 2 7 2 6 4 3 4 2 3 4 4 5 5 10 6 9 10 8 7
7 4 4 16 15 5 3 7 5 8 7 2 2 2 2 2 1 4 5 3 5 3 9 8 5 4 5 4 7 4 1 5 5 4 4 0 6 6 9 9 10 8 9 10 8
9 2 4 4 3 1 3 4 4 7 7 7 2 1 3 3 3 3 2 2 5 6 5 1 6 3 6 2 4 6 8 6 5 5 2 5 6 4 8 10 14 9 8 7 8
4 4 6 3 3 3 6 6 4 11 9 5 2 3 3 0 1 1 3 3 6 5 5 2 2 3 7 7 7 5 4 3 4 3 5 5 5 2 4 8 6 10 8 7 8
2 4 4 4 2 3 3 6 5 7 7 4 4 4 6 5 1 3 1 2 3 3 4 8 4 6 6 5 3 1 4 3 5 3 3 6 7 3 3 9 7 8 7 7 9
1 3 1 4 4 5 2 4 5 4 6 4 2 4 5 2 6 5 7 2 4 5 4 6 4 4 4 4 2 3 3 0 1 5 5 8 8 8 8 8 7 7 7 9 8
2 3 5 4 5 6 3 3 3 5 5 7 1 3 9 6 4 1 4 3 5 2 3 4 3 3 0 3 6 3 5 2 3 3 4 7 6 8 6 6 5 7 7 8 7
7 6 3 5 6 4 3 7 9 8 3 4 2 7 9 3 2 4 4 4 2 5 2 3 4 4 3 2 4 5 3 2 4 5 6 7 8 7 7 9 8 6 9 8 8
Wind_Direction
5 5 4 3 1 354 344 338 325 310 299 293 291 293 297 302 298 270 247 221 179 223 210 241 236 238 230 231 195 144 90 239 250 246 247 327 40 93 55 132 200 169 154 153 155
4 4 3 3 2 356 345 344 340 331 311 286 276 285 295 312 289 241 244 196 208 210 208 226 256 241 255 235 191 138 175 245 221 197 49 352 35 136 123 162 123 103 127 140 139
4 2 3 2 3 358 348 346 339 334 323 306 265 255 291 330 282 247 272 185 169 198 230 261 285 290 231 194 215 207 216 223 261 124 68 15 53 103 127 139 149 140 150 143 143
1 0 0 0 3 3 350 343 335 333 329 314 275 206 213 356 148 308 162 171 184 205 223 255 291 247 313 320 250 287 245 48 298 87 91 128 170 133 141 188 158 152 157 155 146
356 356 356 357 359 3 354 340 333 336 340 333 282 169 144 56 251 188 149 170 185 187 201 191 252 208 249 267 323 208 332 355 109 124 109 98 109 129 86 142 148 149 158 162 149
351 352 352 352 355 359 358 340 333 347 359 13 140 151 105 289 203 179 164 170 179 177 205 196 213 202 273 274 341 314 305 304 24 232 137 120 176 83 106 135 145 156 162 165 168
347 348 348 348 350 354 358 348 342 2 20 49 123 89 351 234 189 157 166 178 179 187 187 238 262 216 293 325 349 309 336 339 295 239 126 128 52 95 141 148 152 166 166 168 174
344 344 344 345 346 349 354 345 324 6 39 72 122 31 248 157 178 148 167 187 194 202 221 260 263 240 161 307 335 314 45 11 278 174 200 107 121 155 131 129 152 159 167 172 176
343 342 341 341 343 342 347 334 290 335 60 57 43 37 273 118 174 193 197 203 212 223 238 263 272 214 8 48 346 348 236 183 284 186 138 98 151 217 120 104 104 118 106 97 53
343 340 338 337 340 338 343 358 147 149 89 33 272 329 268 217 190 213 220 218 198 218 288 229 48 22 2 78 254 282 303 119 172 201 98 121 133 185 141 120 121 106 103 96 80
342 340 337 334 337 334 342 95 19 22 210 202 196 262 202 227 182 217 225 214 263 138 184 266 68 241 243 200 223 256 29 43 240 245 105 169 149 172 145 118 117 113 108 108 102
342 340 336 331 334 331 4 20 201 226 305 232 240 240 263 269 147 221 213 157 132 232 112 11 231 247 244 241 202 354 23 339 28 303 115 164 178 153 151 146 142 134 128 126 120
342 340 338 330 333 31 324 263 311 318 349 286 214 202 217 162 185 217 156 189 209 269 232 176 246 270 249 324 54 5 82 60 78 314 9 54 30 139 180 118 140 134 132 125 126
341 338 340 334 14 333 289 338 352 336 46 275 194 247 164 149 269 194 184 150 224 222 238 221 260 185 102 29 113 62 336 31 18 69 239 84 260 246 155 151 152 146 143 139 130
338 336 335 333 306 299 320 337 336 64 9 179 187 192 154 157 215 236 176 98 231 259 34 264 260 170 87 148 114 202 4 0 342 334 36 314 64 271 138 154 165 163 152 156 149
334 333 328 321 293 284 325 331 350 48 260 226 166 157 124 228 272 110 155 276 174 241 238 221 262 152 167 119 100 81 31 14 33 79 354 236 138 257 184 172 170 171 163 156 150
331 328 313 284 235 323 324 11 56 154 305 213 180 139 154 193 211 172 181 196 164 45 325 331 297 269 127 74 20 73 51 354 10 11 228 320 126 230 201 175 164 155 159 159 164
329 325 303 267 258 286 2 59 193 244 254 272 158 117 171 175 230 188 152 197 263 132 100 200 321 185 192 140 158 96 136 143 198 291 272 327 323 297 147 128 134 159 164 160 167
332 325 289 271 229 211 78 109 211 223 276 342 81 140 253 238 174 151 189 197 211 168 170 153 326 86 119 125 123 292 42 180 118 356 27 309 336 29 109 134 144 136 147 148 125
331 325 274 201 181 127 82 233 244 273 342 329 98 114 174 15 142 175 184 210 224 183 151 197 135 295 130 68 22 139 172 34 7 140 259 312 270 193 174 160 136 131 138 119 126
343 356 296 161 159 56 170 235 289 281 328 236 105 46 101 84 142 312 230 318 204 155 141 151 114 269 95 162 188 8 16 69 116 129 156 347 281 214 193 178 154 148 141 146 140
351 343 127 160 102 149 191 217 285 289 337 297 132 182 206 28 354 333 330 348 338 135 99 30 129 144 201 226 222 180 192 135 129 241 185 148 258 233 194 166 149 141 135 145 136
339 270 330 187 184 270 294 291 274 283 267 245 26 23 357 4 351 243 139 28 44 72 147 188 29 64 356 356 4 56 25 95 93 62 188 140 265 86 156 105 126 143 150 147 117
354 344 321 17 66 130 345 280 274 293 262 144 139 80 47 6 359 270 107 23 92 102 118 85 107 144 179 194 176 305 349 12 118 101 195 205 247 256 93 126 133 138 146 109 120
148 275 16 323 331 335 274 287 307 328 341 43 66 168 181 209 349 21 5 15 360 188 103 108 148 137 174 208 220 202 251 21 160 212 163 261 207 179 174 144 144 144 139 128 137
41 23 342 291 302 338 341 310 288 319 8 321 301 304 80 110 138 78 13 69 256 340 62 5 191 114 90 320 348 300 308 352 327 261 237 225 259 170 178 129 125 156 139 139 150
340 334 103 290 337 11 25 318 314 318 340 64 19 91 64 92 176 205 202 236 274 143 88 82 110 82 242 51 31 334 223 297 280 261 215 267 202 174 157 151 159 130 136 153 175
Height
800 795 791 786 781 776 772 769 767 765 764 763 763 763 764 764 764 763 761 756 756 758 759 760 761 760 765 766 762 764 800 804 787 779 770 740 742 746 745 754 756 752 758 765 777
799 795 790 785 779 774 771 768 765 763 761 760 761 761 762 762 761 759 750 751 754 756 758 757 759 761 768 763 761 777 800 783 759 750 750 739 742 747 758 763 763 760 766 774 780
799 795 790 785 779 773 770 767 764 762 759 758 758 759 760 760 761 748 744 749 753 755 756 755 757 760 765 758 761 766 781 758 746 738 734 742 744 742 756 771 759 765 768 774 781
799 794 789 784 779 774 769 766 763 760 758 756 756 758 759 760 771 744 744 748 751 754 755 753 755 762 767 771 754 771 749 742 741 736 737 746 739 749 749 752 747 751 756 766 777
798 792 787 783 778 773 768 764 761 759 757 755 754 756 758 760 752 743 745 748 751 753 753 755 760 763 773 763 758 759 746 739 738 735 737 737 744 743 747 744 749 756 762 766 774
796 791 786 781 776 772 767 763 760 758 756 754 754 756 758 763 741 742 744 747 749 751 751 752 754 752 761 761 763 751 749 741 737 737 734 749 745 742 752 748 755 759 766 771 773
793 789 784 779 774 770 766 761 760 759 757 755 755 757 758 750 741 741 743 744 746 747 749 749 749 756 752 762 747 750 760 752 744 740 744 741 759 762 749 750 757 762 767 771 775
791 786 782 777 772 768 765 761 759 759 758 757 757 758 756 740 741 741 743 744 745 747 746 745 746 748 751 749 756 764 766 783 748 743 742 747 785 760 748 752 761 763 769 773 774
789 784 779 774 770 765 762 759 758 759 758 758 759 759 755 740 741 739 741 742 743 744 745 743 743 751 754 775 790 779 794 783 764 740 746 753 781 759 749 752 763 764 772 774 775
788 782 777 772 767 762 759 757 757 758 759 759 760 765 744 740 736 737 738 741 743 743 749 748 758 771 777 791 816 793 785 771 769 748 748 763 773 764 755 755 764 766 770 773 773
786 780 774 769 765 760 757 758 761 762 759 753 749 747 734 732 734 735 736 737 738 745 768 756 780 791 775 773 767 770 767 771 756 740 756 767 769 766 762 762 769 770 773 775 775
785 779 772 766 762 758 757 757 752 753 761 740 738 740 733 733 739 735 735 746 748 767 759 775 788 758 754 755 758 759 771 777 757 747 754 771 769 767 762 764 763 766 770 773 776
784 777 770 763 759 757 756 753 751 749 764 742 730 732 731 729 737 738 734 741 753 764 765 784 761 744 753 749 762 770 777 777 773 761 754 760 783 778 768 766 766 765 766 770 773
782 776 770 761 760 758 753 751 749 748 788 758 738 726 724 724 739 723 727 736 750 764 759 768 744 744 748 756 764 782 758 760 767 787 803 767 823 785 779 781 775 773 771 774 774
780 774 770 767 763 760 753 749 747 748 808 734 732 710 717 734 729 729 721 733 754 756 756 769 749 751 760 756 750 768 749 758 762 779 790 786 808 799 784 794 783 776 773 774 772
775 772 766 764 762 753 752 749 749 790 801 744 722 731 737 733 731 726 729 726 730 748 747 755 730 739 746 741 743 741 760 774 786 801 825 789 799 805 788 777 780 776 772 772 773
769 765 761 760 755 751 751 751 792 805 736 745 740 733 741 745 741 740 746 752 768 778 782 761 752 736 733 754 751 765 798 834 830 837 832 788 804 790 765 757 757 769 772 772 771
762 757 752 748 749 751 751 771 795 760 746 721 730 738 752 741 744 742 752 764 751 760 784 791 795 752 734 752 770 767 793 833 835 846 828 792 811 784 754 758 759 762 766 770 773
757 750 746 739 744 750 762 793 781 758 735 736 732 752 753 741 738 745 756 759 745 748 780 790 776 738 735 737 751 772 794 783 817 819 827 814 790 769 760 767 766 770 768 773 774
757 751 741 737 742 748 773 786 762 735 730 729 751 742 756 746 749 752 756 737 737 731 734 760 785 751 744 740 744 763 763 805 824 831 834 824 805 812 786 777 772 774 775 778 777
761 760 733 735 742 759 784 778 750 728 728 732 741 746 748 751 748 750 747 730 721 729 728 750 770 771 752 765 775 777 785 795 809 824 842 848 822 781 779 773 776 777 776 776 777
772 769 734 740 760 769 773 754 738 734 728 729 724 731 740 741 747 744 742 732 716 718 741 742 776 790 772 751 747 762 775 790 821 818 824 829 823 762 767 767 768 775 777 777 776
789 774 735 735 770 771 759 749 742 739 734 729 731 731 727 739 751 740 734 724 717 729 740 739 780 805 793 778 764 771 766 776 797 807 814 831 821 765 769 773 773 775 776 775 777
791 783 754 745 753 755 760 756 751 726 724 719 725 726 739 746 740 744 737 727 723 728 731 739 778 791 809 792 778 778 776 771 793 817 811 815 796 778 779 778 777 776 774 775 779
790 783 776 782 765 766 759 752 750 743 726 718 728 729 738 751 754 754 747 737 731 732 733 748 775 769 775 770 768 771 772 774 782 785 801 793 794 785 781 778 776 772 772 777 780
791 790 784 781 771 764 757 752 748 741 736 737 736 729 744 758 756 760 756 751 747 738 743 752 779 766 776 769 772 776 771 770 772 773 781 785 784 772 771 772 774 774 773 778 781
792 788 789 782 777 771 771 765 753 743 734 732 733 745 750 746 738 738 741 742 740 745 758 761 776 793 796 780 780 795 774 769 772 769 773 785 774 769 774 773 773 773 774 778 779